User: anonymous   Login
Location: Carabito
(9.8355°N, 67.9249°W)
Time: 17:57:48
(UTC+00:00)
Language:

CSL-04 DEB - Orbit

View from above orbital plane
View from above orbital plane
View from above satellite
View from above satellite

Ground track
Ground track

The orbit data is extracted from the following two-line orbital elements,

1 26121U 99057H   24205.21776138  .00015856  00000-0  10648-2 0  9996
2 26121  98.7171 187.8081 0050265  13.5114 346.7442 15.05864886321460
Epoch (UTC): 23 July 2024 05:13:34
Eccentricity: 0.0050265
inclination: 98.7171°
perigee height: 514 km
apogee height: 583 km
right ascension of ascending node: 187.8081°
argument of perigee: 13.5114°
revolutions per day: 15.05864886
mean anomaly at epoch: 346.7442°
orbit number at epoch: 32146

The dashed part of the orbit path shows where the satellite is in the earth's shadow,  

DLR